User: anonymous   Login
Location: Bletchingley
(51.2333°N, 0.1000°W)
Time: 00:16:15
(UTC+00:00)
Language:

Cosmos 1674 - Orbit

View from above orbital plane
View from above orbital plane
View from above satellite
View from above satellite

Ground track
Ground track

The orbit data is extracted from the following two-line orbital elements,

1 15944U 85069A   20336.50846951 +.00001875 +00000-0 +85145-4 0  9991
2 15944 082.5094 056.2364 0018015 054.1955 306.0951 15.20023481929553
Epoch (UTC): 01 December 2020 12:12:11
Eccentricity: 0.0018015
inclination: 82.5094°
perigee height: 493 km
apogee height: 518 km
right ascension of ascending node: 56.2364°
argument of perigee: 54.1955°
revolutions per day: 15.20023481
mean anomaly at epoch: 306.0951°
orbit number at epoch: 92955

The dashed part of the orbit path shows where the satellite is in the earth's shadow,  

DLR